Location: The Saddle
(36.8333°N, 80.3417°W)
Time: 05:34:41
(UTC-04:00)

Tiros 1 - Pass Details

Date: 27 January 2022
Orbit: 630 x 663 km, 48.4° (Epoch: 29 May)

Event Time Altitude Azimuth Distance (km) Brightness Sun altitude
Exits shadow 04:41:56 19° 136° (SE) 1,510 9.4 -33.1°
Drops below altitude 10° 04:43:19 10° 134° (SE) 2,030 10.2 -32.8°
Sets 04:45:38 0° 132° (SE) 2,931 11.1 -32.4°
